Year,Month,Day,Hour,Minute,Value (Times are PST for temperature in C)
2024,05,02,15,31,17.60
2024,05,02,15,32,17.60
2024,05,02,15,33,17.60
2024,05,02,15,34,17.70
2024,05,02,15,35,17.70
2024,05,02,15,36,17.60
2024,05,02,15,37,17.60
2024,05,02,15,38,17.60
2024,05,02,15,39,17.60
2024,05,02,15,40,17.60
2024,05,02,15,41,17.50
2024,05,02,15,42,17.50
2024,05,02,15,43,17.50
2024,05,02,15,44,17.50
2024,05,02,15,45,17.50
2024,05,02,15,46,17.40
2024,05,02,15,47,17.40
2024,05,02,15,48,17.30
2024,05,02,15,49,17.30
2024,05,02,15,50,17.30
2024,05,02,15,51,17.30
2024,05,02,15,52,17.30
2024,05,02,16,07,17.70
2024,05,02,16,08,17.70
2024,05,02,16,34,17.90
2024,05,02,16,35,17.90
2024,05,02,16,44,18.30
2024,05,02,16,45,18.30
2024,05,02,16,46,18.30
2024,05,02,16,49,18.10
2024,05,02,16,54,18.10
2024,05,02,17,00,18.10
2024,05,02,17,01,18.10
2024,05,02,17,03,18.10
2024,05,02,17,08,18.20
2024,05,02,17,09,18.20
2024,05,02,17,14,18.30
2024,05,02,17,15,18.30
2024,05,02,17,16,18.30
2024,05,02,17,20,18.30
2024,05,02,17,21,18.30
2024,05,02,17,27,18.30
2024,05,02,17,28,18.30
2024,05,02,17,29,18.30
2024,05,02,17,31,18.30
2024,05,02,17,32,18.30
2024,05,02,17,33,18.40
2024,05,02,17,36,18.30
2024,05,02,17,37,18.30
2024,05,02,17,39,18.30
2024,05,02,17,42,18.20
2024,05,02,17,43,18.20
2024,05,02,17,46,18.10
2024,05,02,17,47,18.10
2024,05,02,17,48,18.10
2024,05,02,17,49,18.10
2024,05,02,17,50,18.10
2024,05,02,17,51,18.10
2024,05,02,17,52,18.10
2024,05,02,17,53,18.10
2024,05,02,17,54,18.10
2024,05,02,17,55,18.10
2024,05,02,17,56,18.10
2024,05,02,17,57,18.00
2024,05,02,17,58,18.00
2024,05,02,17,59,18.00
2024,05,02,18,00,18.00
2024,05,02,18,01,18.00
2024,05,02,18,02,18.00
2024,05,02,18,03,18.00
2024,05,02,18,04,18.10
2024,05,02,18,05,18.10
2024,05,02,18,06,18.10
2024,05,02,18,07,18.20
2024,05,02,18,08,18.20
2024,05,02,18,09,18.20
2024,05,02,18,10,18.30
2024,05,02,18,11,18.30
2024,05,02,18,12,18.30
2024,05,02,18,13,18.30
2024,05,02,18,15,18.50
2024,05,02,18,16,18.50
2024,05,02,18,18,18.60
2024,05,02,18,19,18.60
2024,05,02,18,20,18.60
2024,05,02,18,21,18.70
2024,05,02,18,22,18.70
2024,05,02,18,23,18.80
2024,05,02,18,24,18.80
2024,05,02,18,25,18.80
2024,05,02,18,26,18.80
2024,05,02,18,27,18.80
2024,05,02,18,28,18.80
2024,05,02,18,29,18.80
2024,05,02,18,30,18.80
2024,05,02,18,31,18.80
2024,05,02,18,32,18.70
2024,05,02,18,33,18.70
2024,05,02,18,34,18.70
2024,05,02,18,35,18.70
2024,05,02,18,36,18.70
2024,05,02,18,37,18.70
2024,05,02,18,39,18.60
2024,05,02,18,40,18.60
2024,05,02,18,41,18.60
2024,05,02,18,42,18.60
2024,05,02,18,43,18.60
2024,05,02,18,44,18.60
2024,05,02,18,45,18.60
2024,05,02,18,47,18.60
2024,05,02,18,48,18.60
2024,05,02,18,49,18.60
2024,05,02,18,52,18.60
2024,05,02,18,53,18.60
2024,05,02,18,54,18.60
2024,05,02,18,58,18.40
2024,05,02,18,59,18.40
2024,05,02,19,01,18.30
2024,05,02,19,02,18.30
2024,05,02,19,04,18.10
2024,05,02,19,05,18.10
2024,05,02,19,06,18.10
2024,05,02,19,07,18.00
2024,05,02,19,08,18.00
2024,05,02,19,09,17.90
2024,05,02,19,10,17.90
2024,05,02,19,13,17.90
2024,05,02,19,14,17.80
2024,05,02,19,15,17.80
2024,05,02,19,16,17.80
2024,05,02,19,18,17.80
2024,05,02,19,19,17.80
2024,05,02,19,23,17.70
2024,05,02,19,24,17.70
2024,05,02,19,29,17.70
2024,05,02,19,30,17.70
2024,05,02,19,31,17.70
2024,05,02,19,32,17.70
2024,05,02,19,33,17.70
2024,05,02,19,34,17.70
2024,05,02,19,35,17.70
2024,05,02,19,36,17.70
2024,05,02,19,37,17.70
2024,05,02,19,38,17.70
2024,05,02,19,39,17.70
2024,05,02,19,42,17.70
2024,05,02,19,43,17.70
2024,05,02,19,44,17.80
2024,05,02,19,45,17.80
2024,05,02,19,46,17.80
2024,05,02,19,47,17.80
2024,05,02,19,48,17.90
2024,05,02,19,49,17.90
2024,05,02,19,50,17.90
2024,05,02,19,51,17.90
2024,05,02,19,52,18.00
2024,05,02,19,53,18.10
2024,05,02,19,54,18.20
2024,05,02,19,55,18.20
2024,05,02,19,56,18.30
2024,05,02,19,57,18.40
2024,05,02,19,58,18.40
2024,05,02,19,59,18.40
2024,05,02,20,00,18.40
2024,05,02,20,01,18.30
2024,05,02,20,02,18.10
2024,05,02,20,03,18.00
2024,05,02,20,04,17.80
2024,05,02,20,05,17.70
2024,05,02,20,06,17.50
2024,05,02,20,07,17.40
2024,05,02,20,08,17.20
2024,05,02,20,09,17.10
2024,05,02,20,10,17.00
2024,05,02,20,11,16.90
2024,05,02,20,12,16.80
2024,05,02,20,13,16.70
2024,05,02,20,14,16.70
2024,05,02,20,15,16.60
2024,05,02,20,16,16.50
2024,05,02,20,17,16.40
2024,05,02,20,18,16.40
2024,05,02,20,19,16.30
2024,05,02,20,20,16.30
2024,05,02,20,21,16.20
2024,05,02,20,22,16.10
2024,05,02,20,23,16.10
2024,05,02,20,24,16.00
2024,05,02,20,25,15.90
2024,05,02,20,26,15.80
2024,05,02,20,27,15.80
2024,05,02,20,28,15.70
2024,05,02,20,29,15.60
2024,05,02,20,30,15.50
2024,05,02,20,31,15.50
2024,05,02,20,32,15.40
2024,05,02,20,33,15.30
2024,05,02,20,34,15.30
2024,05,02,20,35,15.20
2024,05,02,20,36,15.10
2024,05,02,20,37,15.10
2024,05,02,20,38,15.10
2024,05,02,20,39,15.00
2024,05,02,20,40,14.90
2024,05,02,20,41,14.90
2024,05,02,20,42,14.80
2024,05,02,20,44,14.80
2024,05,02,20,45,14.70
2024,05,02,20,46,14.70
2024,05,02,20,47,14.70
2024,05,02,20,48,14.60
2024,05,02,20,49,14.60
2024,05,02,20,50,14.60
2024,05,02,20,51,14.50
2024,05,02,20,52,14.50
2024,05,02,20,53,14.40
2024,05,02,20,54,14.40
2024,05,02,20,55,14.30
2024,05,02,20,56,14.30
2024,05,02,20,57,14.20
2024,05,02,20,58,14.20
2024,05,02,20,59,14.10
2024,05,02,21,00,14.00
2024,05,02,21,01,14.00
2024,05,02,21,02,13.90
2024,05,02,21,03,13.80
2024,05,02,21,04,13.80
2024,05,02,21,05,13.70
2024,05,02,21,06,13.70
2024,05,02,21,07,13.70
2024,05,02,21,08,13.70
2024,05,02,21,09,13.60
2024,05,02,21,10,13.60
2024,05,02,21,11,13.50
2024,05,02,21,12,13.50
2024,05,02,21,13,13.40
2024,05,02,21,14,13.40
2024,05,02,21,15,13.30
2024,05,02,21,16,13.30
2024,05,02,21,17,13.20
2024,05,02,21,18,13.20
2024,05,02,21,19,13.10
2024,05,02,21,20,13.10
2024,05,02,21,21,13.00
2024,05,02,21,22,13.00
2024,05,02,21,23,13.00
2024,05,02,21,24,12.90
2024,05,02,21,25,12.90
2024,05,02,21,26,12.90
2024,05,02,21,27,12.90
2024,05,02,21,28,12.80
2024,05,02,21,29,12.70
2024,05,02,21,30,12.70
2024,05,02,21,31,12.60
2024,05,02,21,32,12.60
2024,05,02,21,33,12.50
2024,05,02,21,34,12.50
2024,05,02,21,35,12.40
2024,05,02,21,36,12.30
2024,05,02,21,37,12.30
2024,05,02,21,38,12.20
2024,05,02,21,39,12.20
2024,05,02,21,40,12.20
2024,05,02,21,41,12.10
2024,05,02,21,42,12.10
2024,05,02,21,43,12.10
2024,05,02,21,44,12.00
2024,05,02,21,45,12.00
2024,05,02,21,46,11.90
2024,05,02,21,47,11.90
2024,05,02,21,48,11.90
2024,05,02,21,49,11.90
2024,05,02,21,50,11.90
2024,05,02,21,51,11.90
2024,05,02,21,52,11.90
2024,05,02,21,53,11.80
2024,05,02,21,54,11.80
2024,05,02,21,55,11.80
2024,05,02,21,56,11.80
2024,05,02,21,57,11.80
2024,05,02,21,58,11.70
2024,05,02,21,59,11.70
2024,05,02,22,00,11.70
2024,05,02,22,01,11.70
2024,05,02,22,02,11.60
2024,05,02,22,03,11.60
2024,05,02,22,04,11.60
2024,05,02,22,05,11.50
2024,05,02,22,06,11.50
2024,05,02,22,07,11.40
2024,05,02,22,08,11.40
2024,05,02,22,09,11.40
2024,05,02,22,10,11.30
2024,05,02,22,11,11.30
2024,05,02,22,12,11.20
2024,05,02,22,13,11.10
2024,05,02,22,14,11.10
2024,05,02,22,15,11.10
2024,05,02,22,16,11.10
2024,05,02,22,17,11.00
2024,05,02,22,18,11.00
2024,05,02,22,19,10.90
2024,05,02,22,20,10.90
2024,05,02,22,21,10.90
2024,05,02,22,22,10.80
2024,05,02,22,23,10.80
2024,05,02,22,24,10.70
2024,05,02,22,25,10.70
2024,05,02,22,26,10.60
2024,05,02,22,27,10.60
2024,05,02,22,28,10.60
2024,05,02,22,29,10.50
2024,05,02,22,30,10.50
2024,05,02,22,31,10.50
2024,05,02,22,32,10.40
2024,05,02,22,33,10.40
2024,05,02,22,34,10.30
2024,05,02,22,35,10.30
2024,05,02,22,36,10.30
2024,05,02,22,37,10.20
2024,05,02,22,38,10.20
2024,05,02,22,39,10.20
2024,05,02,22,40,10.20
2024,05,02,22,41,10.10
2024,05,02,22,42,10.10
2024,05,02,22,43,10.10
2024,05,02,22,44,10.00
2024,05,02,22,45,10.00
2024,05,02,22,46,10.00
2024,05,02,22,47,10.00
2024,05,02,22,48,9.90
2024,05,02,22,49,9.90
2024,05,02,22,50,9.80
2024,05,02,22,51,9.80
2024,05,02,22,52,9.80
2024,05,02,22,53,9.80
2024,05,02,22,54,9.80
2024,05,02,22,55,9.80
2024,05,02,22,56,9.70
2024,05,02,22,57,9.70
2024,05,02,22,58,9.70
2024,05,02,22,59,9.70
2024,05,02,23,00,9.60
2024,05,02,23,01,9.60
2024,05,02,23,02,9.60
2024,05,02,23,03,9.50
2024,05,02,23,04,9.50
2024,05,02,23,05,9.50
2024,05,02,23,06,9.40
2024,05,02,23,07,9.40
2024,05,02,23,08,9.30
2024,05,02,23,09,9.30
2024,05,02,23,10,9.30
2024,05,02,23,11,9.20
2024,05,02,23,12,9.20
2024,05,02,23,13,9.10
2024,05,02,23,14,9.10
2024,05,02,23,15,9.10
2024,05,02,23,16,9.10
2024,05,02,23,17,9.10
2024,05,02,23,18,9.10
2024,05,02,23,19,9.00
2024,05,02,23,20,9.00
2024,05,02,23,21,8.90
2024,05,02,23,22,8.90
2024,05,02,23,23,8.90
2024,05,02,23,24,8.80
2024,05,02,23,25,8.80
2024,05,02,23,26,8.80
2024,05,02,23,27,8.80
2024,05,02,23,28,8.80
2024,05,02,23,29,8.70
2024,05,02,23,30,8.70
2024,05,02,23,31,8.70
2024,05,02,23,32,8.70
2024,05,02,23,33,8.70
2024,05,02,23,34,8.60
2024,05,02,23,35,8.60
2024,05,02,23,36,8.60
2024,05,02,23,37,8.60
2024,05,02,23,38,8.60
2024,05,02,23,39,8.50
2024,05,02,23,40,8.50
2024,05,02,23,41,8.50
2024,05,02,23,42,8.40
2024,05,02,23,43,8.40
2024,05,02,23,44,8.40
2024,05,02,23,45,8.30
2024,05,02,23,46,8.30
2024,05,02,23,47,8.30
2024,05,02,23,48,8.30
2024,05,02,23,49,8.30
2024,05,02,23,50,8.30
2024,05,02,23,51,8.20
2024,05,02,23,52,8.30
2024,05,02,23,53,8.20
2024,05,02,23,54,8.20
2024,05,02,23,55,8.20
2024,05,02,23,56,8.20
2024,05,02,23,57,8.20
2024,05,02,23,58,8.20
2024,05,02,23,59,8.20
